Location: Felsheim
(48.7267°N, 10.7386°E)
Time: 02:49:30
(UTC+00:00)

Cosmos 2369 - Pass Details

Date: 09 April 2020
Orbit: 840 x 855 km, 71.0° (Epoch: 04 June)

Event Time Altitude Azimuth Distance (km) Brightness Sun altitude
Rises 21:06:47 0° 330° (NNW) 3,405 8.2 -26.3°
Reaches altitude 10° 21:09:15 10° 327° (NNW) 2,467 7.1 -26.6°
Maximum altitude 21:14:51 67° 247° (WSW) 914 3.8 -27.1°
Enters shadow 21:15:12 65° 224° (SW) 925 3.7 -27.2°
